Location: Basses Si�yes
(44.0835°N, 6.2037°E)
Time: 06:35:11
(UTC+00:00)

Resurs 01 Rocket - Pass Details

Date: 27 February 2020
Orbit: 634 x 644 km, 98.0° (Epoch: 09 April)

Event Time Altitude Azimuth Distance (km) Brightness Sun altitude
Exits shadow 19:11:24 18° 29° (NNE) 1,579 3.4 -20.7°
Drops below altitude 10° 19:12:59 10° 12° (NNE) 2,042 4.2 -21.0°
Sets 19:15:30 0° 359° (N) 2,954 5.2 -21.4°
